ECMWFNIL_850_temp_060.txt.gz
Temp
14 14 14 14 14 14 14 14 13 13 12 12 12 12 12 12 12 12 12 12 12 12 12 13 13 13 12 12 12 13 12 12 12 12 12 12 12 12 12 12 12 12
14 14 14 14 14 14 14 14 13 13 12 12 12 12 12 12 12 12 12 12 12 12 12 13 13 13 12 12 12 13 13 12 12 12 12 12 12 12 12 12 12 12
13 13 12 12 12 13 13 13 13 13 12 12 12 12 12 12 12 12 12 12 12 12 12 13 13 13 12 12 12 12 13 13 12 12 12 12 12 12 12 12 12 12
12 12 12 11 11 12 12 13 13 12 12 11 11 11 12 12 12 12 12 13 13 13 13 13 13 12 12 12 12 12 12 13 12 12 12 12 12 12 13 13 13 12
12 12 12 11 11 11 12 12 12 12 12 12 11 11 11 12 12 12 12 12 13 13 13 13 12 12 12 12 12 12 12 12 12 12 12 12 12 12 12 13 13 12
12 12 12 11 11 11 12 12 12 12 12 12 12 11 11 12 12 12 13 12 12 12 12 12 12 12 12 12 12 12 12 12 12 12 12 12 12 12 13 12 13 13
12 12 12 11 11 12 12 12 12 12 12 12 12 11 12 12 12 12 13 13 12 12 12 12 13 12 12 12 12 12 12 12 12 12 12 12 12 12 13 12 12 12
11 11 12 11 11 12 12 12 12 12 12 12 11 12 12 12 12 12 13 13 13 12 12 12 13 12 12 12 12 12 12 12 12 12 12 12 12 12 12 12 12 12
11 11 11 11 11 12 12 12 12 12 12 12 11 12 12 12 12 12 12 13 13 13 13 13 12 12 12 12 12 12 12 12 12 12 12 12 12 12 12 12 12 12
11 11 11 11 11 12 12 13 13 13 13 12 12 12 12 12 12 12 12 12 13 13 13 13 13 12 12 12 12 12 12 12 12 12 12 12 13 12 12 12 12 12
11 12 12 11 12 12 12 13 13 13 13 13 12 12 12 12 12 12 12 12 12 13 13 13 13 13 12 12 12 12 12 12 12 12 12 12 12 12 12 12 12 12
11 12 12 12 12 12 13 13 13 13 13 13 12 12 12 12 12 12 12 12 12 12 13 13 13 13 12 12 12 12 12 12 12 12 12 12 12 12 12 12 12 12
10 11 11 12 12 12 12 12 13 13 12 12 12 12 12 11 11 12 12 12 12 12 13 13 13 13 12 12 12 12 12 12 12 12 12 12 12 12 12 12 12 12
10 10 10 11 12 12 12 12 12 12 12 12 12 12 12 12 12 12 12 12 12 12 13 13 13 13 12 12 12 12 12 12 12 12 12 12 12 12 12 12 12 11
10 10 10 10 11 12 12 12 12 12 12 12 12 12 12 12 12 12 12 13 12 12 12 13 13 12 12 12 12 12 12 12 12 12 12 12 12 12 12 11 11 11
10 10 10 10 10 11 12 12 11 12 12 12 12 12 12 12 12 12 12 12 12 12 12 13 13 12 12 12 12 12 12 12 12 12 12 12 12 12 11 11 11 11
9 10 10 10 9 10 11 12 11 11 11 12 12 12 12 12 12 12 12 12 12 12 12 13 13 12 12 12 12 12 12 12 12 12 12 11 11 11 11 11 11 11
8 9 9 9 9 9 10 11 11 11 11 11 12 12 12 12 12 12 12 12 12 12 12 12 12 12 12 12 11 11 11 11 11 11 11 11 11 11 11 11 11 11
7 8 9 9 8 8 9 10 10 10 11 11 12 12 12 12 12 12 12 12 12 12 12 12 12 12 12 11 11 11 11 11 11 11 11 11 11 11 11 11 11 11
6 7 8 8 8 8 9 9 10 10 10 11 11 11 11 12 12 12 12 12 12 12 12 12 11 11 11 11 11 11 11 11 11 11 11 11 11 11 11 11 11 11
5 6 7 7 7 8 8 9 10 9 10 10 10 10 11 11 11 12 11 11 11 11 11 12 12 11 11 11 11 11 11 11 11 11 11 11 11 11 11 11 11 11
5 5 6 6 7 7 7 9 9 9 9 10 10 10 10 10 11 11 11 11 11 11 11 11 12 11 11 11 11 11 11 11 11 11 11 11 11 11 11 11 11 11
4 4 5 5 6 6 6 7 8 9 9 9 9 10 10 10 10 11 11 11 11 11 11 12 12 11 11 11 11 11 11 11 11 11 11 11 11 11 11 11 11 12
3 4 4 4 5 5 5 5 7 7 8 8 9 9 9 10 10 10 11 11 11 11 11 11 12 11 11 11 11 11 11 11 11 11 11 11 11 11 11 11 12 12
3 3 3 4 4 4 3 4 5 6 6 6 6 7 8 8 9 10 10 10 10 10 11 11 11 11 11 11 11 11 11 11 11 11 11 11 11 11 11 11 11 11
3 3 3 3 3 3 3 3 3 4 5 5 4 4 4 5 6 8 9 9 9 9 10 10 11 11 11 11 11 11 11 11 11 11 11 11 11 11 11 11 11 11

ECMWFNIL_850_temp_063.txt.gz
Temp
13 13 13 13 13 13 12 12 12 12 12 12 12 12 13 13 13 12 12 12 13 12 12 12 12 12 12 13 13 12 12 13 12 13 13 12 12 12 12 12 12 12
13 13 12 12 12 12 12 12 12 12 12 12 12 12 12 13 13 12 12 12 12 12 12 12 12 12 12 12 12 13 13 13 12 13 13 12 12 11 12 12 12 12
12 12 12 12 12 13 13 13 13 12 12 12 12 12 12 12 12 12 11 11 11 11 12 12 12 12 12 12 12 12 13 13 13 13 13 13 12 12 12 12 12 12
11 11 11 12 12 12 12 12 13 13 13 13 13 13 12 12 12 12 11 11 11 11 12 12 12 12 12 12 12 12 12 12 12 12 12 12 12 12 12 12 12 12
10 11 11 11 11 12 12 12 13 13 14 13 13 14 13 12 12 12 11 11 11 11 12 12 12 12 12 12 12 12 12 12 12 12 12 12 12 12 12 12 12 12
10 10 11 11 11 11 12 12 13 13 14 13 13 13 13 13 12 12 11 11 11 11 12 12 12 12 12 12 12 12 12 12 12 12 12 12 12 12 12 12 12 12
10 10 10 11 11 11 12 12 13 13 13 13 13 13 13 13 13 12 11 11 12 12 12 12 12 12 12 12 12 12 12 12 12 12 12 12 12 12 12 12 12 12
10 10 10 11 11 11 11 12 13 13 13 13 13 13 13 12 13 13 12 11 11 11 12 12 12 12 13 12 12 12 13 13 13 12 12 12 12 12 12 12 12 12
10 10 10 11 11 11 12 12 13 13 13 13 13 13 13 12 12 12 12 12 11 12 12 12 12 13 12 12 12 12 13 13 13 12 12 12 12 12 12 12 12 12
11 11 11 10 11 11 12 12 13 13 13 13 13 13 13 12 12 12 12 12 12 12 12 12 12 12 12 12 12 12 12 13 12 12 12 12 12 12 12 12 12 12
11 11 11 11 11 11 11 12 13 13 13 13 13 13 13 12 12 12 12 12 12 12 12 12 12 12 12 12 12 12 12 12 12 12 12 12 12 12 12 12 12 12
11 11 12 12 12 11 11 12 13 13 13 13 13 13 12 12 12 12 12 12 12 12 12 12 12 12 12 12 12 12 12 12 12 12 12 12 12 12 12 12 12 12
10 11 11 12 12 12 12 12 12 13 13 13 13 12 12 12 12 12 12 12 12 12 12 12 12 12 12 12 12 12 12 12 12 12 12 12 12 12 12 12 12 12
10 10 11 11 12 12 12 12 12 12 13 13 12 12 12 11 11 12 12 12 12 12 12 12 12 11 12 12 12 12 12 12 12 12 12 12 12 12 12 12 12 12
9 10 10 11 11 12 12 12 12 12 12 12 12 11 11 11 11 12 12 12 12 12 12 12 12 12 12 12 12 12 12 12 12 12 12 12 12 12 12 12 12 12
8 9 10 10 11 11 11 11 11 11 11 11 11 11 11 11 11 11 11 11 12 12 12 12 12 12 12 12 12 12 12 12 12 12 12 12 12 12 12 12 12 12
7 8 9 9 9 10 10 10 10 10 10 10 10 10 11 11 11 11 11 11 12 12 12 12 12 12 12 12 12 12 12 12 12 12 12 12 12 12 12 12 12 12
6 7 8 9 9 8 8 8 8 9 9 10 10 10 10 11 11 11 11 11 11 12 12 12 12 12 12 12 12 12 12 12 12 12 12 12 12 12 12 12 12 11
5 6 7 8 8 7 7 7 8 8 9 9 10 10 10 10 11 11 11 11 11 11 12 12 12 12 12 12 12 12 12 12 12 12 12 12 12 12 12 11 11 11
4 5 6 7 7 7 7 7 8 8 9 9 10 10 10 10 10 10 11 11 11 11 12 12 12 13 12 12 12 12 12 12 12 12 12 11 11 11 11 11 11 11
4 4 5 5 6 6 6 7 8 8 8 9 9 9 9 9 10 10 10 11 11 11 11 12 12 12 12 12 12 12 12 12 11 11 11 11 11 11 11 11 11 11
3 3 4 4 5 5 5 6 7 7 8 8 8 9 9 9 9 10 10 10 10 11 11 11 12 12 12 12 12 12 11 11 11 11 11 11 11 11 11 11 11 11
3 3 3 3 4 4 4 4 5 5 6 7 7 7 8 8 9 9 10 10 10 10 11 11 11 11 11 11 11 11 11 11 11 11 11 11 11 10 11 11 11 11
3 3 2 3 3 3 3 3 3 3 4 4 5 6 6 7 8 8 8 9 9 10 10 11 11 11 11 11 11 11 11 11 11 11 11 11 10 10 11 11 11 11
3 3 2 2 2 3 3 2 2 2 2 2 3 4 5 6 6 6 6 6 8 9 10 10 11 11 11 11 11 11 11 11 11 11 11 11 11 11 11 11 11 11
3 3 3 2 2 2 2 2 2 2 2 2 2 2 3 4 5 5 5 4 5 7 8 9 10 10 11 10 10 10 11 11 11 11 11 11 11 11 11 11 11 11

ECMWFNIL_850_temp_069.txt.gz
Temp
10 11 11 11 12 12 12 12 12 12 12 13 13 13 13 13 13 13 13 13 13 13 13 13 13 13 13 13 12 12 12 12 13 13 12 12 13 13 14 13 13 13
10 10 10 11 11 12 12 12 12 12 12 13 13 13 13 13 13 13 13 12 13 13 13 13 13 13 12 13 12 12 12 12 12 12 12 13 13 13 13 13 13 13
10 10 10 10 11 11 12 12 12 12 13 13 13 13 13 13 13 13 13 12 12 12 12 13 13 13 12 12 12 12 12 12 12 12 12 12 12 12 13 13 12 12
9 10 10 10 10 10 11 11 12 13 13 13 13 13 13 13 13 13 13 12 12 12 13 13 13 12 12 12 12 12 12 12 12 12 12 12 12 12 12 12 12 12
9 9 9 10 10 10 10 11 11 12 13 13 13 13 13 13 13 13 13 12 12 12 12 12 12 12 12 12 12 12 12 12 12 12 12 12 12 12 12 12 12 12
8 8 9 9 10 10 10 10 11 11 12 12 12 13 13 13 13 13 13 12 12 12 12 12 12 12 12 12 12 12 11 12 12 12 12 12 12 12 12 12 12 12
8 8 8 8 10 11 10 10 10 11 11 12 12 12 12 12 12 12 13 13 13 13 12 12 12 12 12 12 12 12 11 12 12 12 12 12 12 12 12 12 12 12
8 8 7 8 10 11 11 11 11 11 11 11 12 12 12 12 12 12 12 12 12 13 13 13 12 12 12 12 12 12 12 11 12 12 12 12 12 12 12 12 12 12
7 7 7 7 8 10 11 12 11 11 11 11 11 11 11 11 12 12 12 12 12 12 12 12 12 12 12 12 12 12 12 11 12 12 12 12 12 12 12 12 12 12
7 7 7 7 7 8 10 11 11 11 11 11 11 11 11 11 11 11 12 12 12 12 12 12 12 12 12 12 12 12 12 11 11 12 12 12 12 12 13 13 12 12
6 6 6 6 6 7 8 9 10 11 11 11 11 10 11 11 11 11 11 12 12 12 12 12 12 12 12 12 12 12 12 11 11 11 12 12 12 12 13 12 12 12
6 6 6 6 6 6 6 7 8 9 10 10 10 9 9 10 10 10 11 11 12 12 12 12 12 12 12 12 12 12 12 12 12 12 12 12 12 12 12 12 12 12
6 6 6 6 6 5 5 6 6 7 8 9 9 9 9 9 9 10 10 11 11 11 11 12 11 11 12 12 12 12 12 12 12 12 12 13 12 12 12 11 11 12
5 5 6 6 5 5 5 5 6 6 7 7 7 8 8 9 9 10 10 11 11 11 11 11 11 11 11 12 12 11 12 12 12 12 12 13 13 13 12 12 12 12
5 5 5 5 5 5 5 5 5 6 6 7 7 7 8 8 9 9 10 10 11 11 11 11 11 11 11 11 11 11 11 12 12 12 12 12 13 13 13 12 12 12
5 4 4 4 4 4 4 4 4 5 6 7 7 7 7 8 8 9 10 10 10 11 11 11 11 11 11 11 11 11 12 12 12 12 12 12 12 12 13 12 12 12
4 4 4 4 4 4 4 4 4 4 5 6 7 7 7 7 8 9 9 9 10 10 10 11 11 11 11 11 11 11 11 11 11 12 12 12 12 12 12 12 12 12
4 4 4 4 4 4 4 4 3 3 4 5 6 6 7 7 7 8 8 9 9 10 10 10 10 11 11 11 11 11 11 11 11 11 11 12 12 12 11 12 12 12
4 4 4 4 4 3 3 3 3 3 3 3 4 5 6 6 7 7 8 8 8 9 9 9 9 10 10 11 11 11 11 11 11 11 11 11 12 11 11 11 12 12
4 4 3 3 3 3 3 3 3 3 3 3 2 3 4 5 6 6 7 7 7 8 8 8 9 9 10 10 10 11 11 11 11 11 11 11 11 11 11 11 11 12
4 4 3 3 3 3 3 3 3 3 3 3 3 2 2 3 3 4 5 6 6 6 7 7 8 8 9 9 10 10 10 10 11 11 11 11 11 11 11 11 11 12
4 4 4 3 3 3 2 2 2 2 2 2 2 2 2 2 2 2 3 4 5 5 6 6 6 7 8 9 9 10 10 10 10 11 11 11 11 11 11 11 11 11
4 4 4 4 4 3 3 2 2 2 2 2 2 2 2 2 2 2 2 3 3 4 4 5 5 6 7 8 8 9 10 10 10 11 11 11 11 11 11 11 11 11
3 3 3 3 3 3 3 2 2 2 1 2 1 1 2 2 2 2 2 2 2 2 3 4 4 5 6 7 7 8 8 9 10 10 10 10 10 11 11 11 11 11
3 3 3 3 3 3 2 2 2 2 1 1 1 1 1 1 1 1 1 1 1 1 1 2 3 4 5 6 6 7 7 8 9 9 10 10 10 10 11 11 11 11
3 3 3 3 3 3 3 2 2 2 1 1 1 1 1 1 1 1 1 1 1 1 1 1 1 2 3 4 5 6 7 7 8 8 9 9 10 10 10 10 10 10

ECMWFNIL_850_temp_072.txt.gz
Temp
10 10 10 10 10 10 11 11 12 12 12 12 13 13 13 13 13 13 13 13 13 13 13 13 13 13 13 13 12 12 13 13 12 12 12 12 12 12 12 12 12 12
9 9 10 10 10 10 10 10 11 11 12 12 12 12 13 13 13 13 13 13 13 13 13 13 13 13 13 13 12 12 13 13 13 12 12 12 12 12 12 12 12 12
9 9 9 10 9 10 10 10 10 11 11 12 12 12 12 12 13 13 13 13 13 13 13 13 13 13 13 12 12 12 12 13 13 12 12 12 12 12 12 12 12 12
8 9 9 8 9 10 10 10 10 10 11 11 11 12 12 12 12 12 12 12 12 13 13 13 13 13 13 13 12 12 13 13 12 12 12 12 12 12 12 12 12 12
8 8 8 8 8 9 10 11 10 11 11 11 11 11 11 12 12 12 12 12 12 12 12 12 12 12 12 13 13 13 13 13 13 12 12 12 12 12 12 12 12 12
8 8 8 7 8 8 9 10 11 11 11 11 11 11 11 11 11 12 12 12 12 12 12 12 12 12 12 12 12 12 12 12 12 12 12 12 12 12 12 12 12 12
7 7 7 7 7 7 7 8 9 10 10 10 10 10 10 11 11 11 11 11 11 12 12 12 12 12 12 12 12 12 12 12 12 12 12 12 12 12 12 12 12 12
7 7 7 7 7 7 6 7 7 8 8 9 9 10 9 9 9 10 10 11 11 11 11 11 11 12 12 12 12 12 12 12 12 12 12 12 12 12 12 12 12 12
6 6 6 7 7 6 6 6 7 7 7 8 8 9 9 8 8 8 9 10 10 11 11 11 11 11 12 12 12 12 12 12 12 12 12 12 11 11 12 12 12 12
6 6 6 6 6 6 6 6 6 6 6 6 7 8 8 8 8 8 9 9 10 10 11 11 11 11 11 11 12 12 12 12 12 12 12 11 11 11 11 12 12 12
6 6 6 6 6 6 5 5 5 6 6 6 6 7 7 7 7 7 8 8 9 10 10 11 11 11 11 11 11 11 11 12 12 12 12 11 11 11 11 11 11 11
5 5 5 5 5 5 5 5 5 5 6 6 6 6 6 6 7 7 7 7 9 9 10 10 11 11 11 11 11 11 11 11 12 11 11 11 11 11 11 11 12 11
5 5 5 4 4 4 4 4 4 4 6 6 6 6 6 6 6 7 7 7 8 9 9 9 10 10 11 11 11 11 11 11 11 11 11 11 11 11 11 11 11 11
5 5 4 4 4 4 4 4 4 4 4 5 5 6 6 6 6 6 7 7 8 8 8 9 10 10 10 11 11 11 11 11 11 11 11 11 11 11 11 11 11 11
5 5 4 4 4 4 4 4 3 3 3 3 4 5 5 6 6 6 6 7 7 8 8 9 9 10 10 10 10 11 11 11 11 11 11 11 11 11 11 11 11 11
5 4 4 4 4 3 3 3 3 3 3 3 3 3 3 4 5 5 6 6 6 7 7 8 8 8 9 9 9 10 11 11 11 11 11 11 11 11 11 11 11 11
5 4 4 4 3 3 3 3 3 3 3 3 3 3 2 2 3 4 4 5 5 6 6 7 7 7 8 8 9 10 10 11 11 11 11 11 11 11 11 11 11 11
5 4 4 4 4 3 3 2 2 2 2 3 3 3 2 2 2 2 3 3 4 4 5 6 6 7 7 8 9 9 10 10 10 11 11 11 11 11 11 11 11 11
5 4 4 4 4 3 3 2 2 2 2 2 2 2 2 2 2 2 2 2 2 3 4 5 5 6 7 7 8 9 9 9 10 10 10 11 11 11 11 11 11 11
4 4 4 4 3 3 3 3 2 2 2 1 1 1 2 2 2 2 2 1 1 2 3 3 4 5 6 6 7 8 9 9 9 10 10 10 11 11 11 11 11 11
4 4 4 4 3 3 3 3 2 2 2 1 1 1 1 1 1 1 1 1 1 1 1 2 3 4 5 5 6 7 8 9 9 9 10 10 10 11 11 11 11 11
4 4 4 4 3 3 3 3 3 2 2 1 2 1 1 1 1 1 1 1 1 1 1 1 2 3 4 5 5 6 7 8 9 9 9 9 10 10 10 11 11 11
3 3 3 3 3 3 3 3 2 2 2 2 2 2 1 1 1 0 0 0 0 0 0 1 1 2 3 4 4 5 6 7 8 8 8 9 9 9 10 10 10 11
3 3 3 3 3 3 2 2 2 2 2 2 2 2 1 1 1 0 0 -0 -0 -0 0 0 0 1 2 3 4 4 4 5 6 7 7 7 8 9 9 10 10 10
3 3 3 3 3 2 2 2 2 2 2 2 2 2 2 1 1 0 0 -0 -0 -0 -0 -0 0 0 1 2 3 3 3 4 4 5 6 6 7 8 8 9 9 10
3 3 3 3 3 3 2 2 2 1 1 1 2 1 1 1 1 0 0 0 -0 -0 -0 -0 -0 0 0 0 1 2 2 3 3 4 5 5 6 6 7 8 9 10

ECMWFNIL_850_temp_075.txt.gz
Temp
8 8 8 8 8 8 9 9 9 10 10 10 11 11 11 11 12 12 12 12 12 12 12 12 13 13 13 13 13 12 12 12 12 12 12 12 12 12 12 12 12 12
8 8 8 8 8 8 8 8 8 8 9 10 10 11 11 11 11 12 12 12 12 12 12 12 12 13 12 12 12 12 12 12 12 12 12 12 12 12 12 12 12 12
8 8 8 8 7 7 8 8 8 8 8 9 10 10 10 10 11 11 11 11 12 12 12 12 12 12 12 12 12 12 13 12 12 12 12 13 13 12 12 12 12 12
8 7 7 7 7 7 7 8 9 9 9 9 10 10 10 10 10 10 11 11 11 12 11 11 11 11 11 12 12 12 12 12 12 12 12 13 13 13 13 12 12 12
7 7 7 7 7 7 7 8 8 9 9 9 10 10 10 11 10 11 10 11 11 11 11 11 11 11 11 11 11 12 12 12 12 12 12 13 13 13 13 13 12 12
7 7 6 6 6 6 7 7 7 7 7 8 9 9 10 10 10 10 10 10 10 10 11 11 11 11 11 11 11 11 11 12 12 12 12 12 12 12 13 13 12 12
6 6 6 6 6 6 6 6 7 7 6 7 7 8 8 9 9 9 10 9 9 9 9 10 10 11 11 11 11 11 11 11 12 12 12 12 12 12 13 13 12 12
6 6 6 6 6 6 5 6 6 7 6 7 7 6 6 7 7 8 8 8 7 8 9 9 10 10 10 11 11 11 11 11 12 12 12 12 12 12 12 12 12 12
6 6 6 6 6 5 5 5 6 6 6 6 6 6 6 6 6 6 6 7 7 7 8 8 9 9 10 10 10 11 11 11 11 11 12 12 12 12 12 11 12 12
6 6 6 5 5 5 5 5 5 5 5 6 6 6 6 6 6 6 6 6 7 7 8 8 8 9 9 10 10 10 11 11 10 11 11 11 12 12 12 12 12 11
5 5 5 5 4 4 4 4 4 4 4 5 5 6 6 5 5 6 6 6 6 7 7 7 8 8 8 9 9 10 10 10 10 10 11 11 12 12 12 12 12 11
5 5 5 5 4 3 3 3 3 3 3 3 4 4 5 5 5 5 5 6 6 6 7 7 7 7 8 8 9 9 9 10 10 10 11 11 12 12 12 12 11 12
5 5 4 4 4 4 3 2 2 2 2 2 2 3 3 3 4 4 5 5 5 6 6 6 6 7 7 8 8 9 9 9 10 10 11 11 11 11 12 12 11 11
4 4 4 4 4 4 3 3 2 2 2 2 2 2 2 2 3 3 4 4 4 5 5 5 6 6 7 7 8 8 9 9 9 10 10 11 11 11 11 11 11 11
4 4 4 4 3 3 3 3 3 2 2 2 2 2 2 2 1 2 3 3 4 4 5 5 5 5 5 5 6 7 8 9 9 10 10 10 11 11 11 11 11 11
4 4 4 3 3 3 3 3 2 2 2 2 2 2 2 2 1 1 1 2 3 3 4 4 4 5 5 5 5 6 7 8 9 9 9 9 10 10 10 11 11 11
4 4 3 3 3 3 3 3 2 2 1 1 1 1 1 1 1 1 0 1 1 2 3 3 3 4 4 5 5 5 6 7 8 9 9 9 9 9 10 10 10 11
4 3 3 3 3 3 2 2 2 2 1 1 1 1 0 0 0 0 0 0 0 1 1 2 2 3 4 5 5 5 5 6 7 8 8 8 9 9 9 9 10 10
3 3 3 3 3 3 2 2 2 2 1 1 1 1 0 0 0 0 0 0 -0 -0 0 1 1 2 3 4 5 5 5 5 6 7 7 7 8 8 8 9 9 10
3 3 3 3 3 3 3 2 2 2 2 1 1 1 1 0 0 0 0 0 0 0 0 0 1 1 2 3 4 4 5 5 5 6 6 6 7 7 8 8 9 9
3 3 3 3 3 3 3 2 2 1 1 1 1 1 1 0 0 0 0 0 0 0 1 1 1 1 1 2 3 4 4 5 5 5 5 5 6 7 7 7 8 9
3 3 3 3 3 3 3 2 2 1 1 1 1 1 0 0 0 0 0 0 -0 0 0 1 1 1 1 1 2 3 4 4 4 5 5 5 5 6 6 7 7 8
3 3 2 3 3 2 3 3 2 1 1 1 1 0 -0 -0 0 0 0 0 -0 -0 0 0 0 0 0 0 1 2 3 3 4 4 4 4 5 5 5 6 6 7
3 3 3 2 2 2 2 2 2 2 1 1 1 1 0 -0 0 1 0 0 -0 -0 0 0 -0 -0 0 0 0 1 1 2 3 3 4 4 4 4 4 5 5 6
3 3 3 3 2 2 2 2 2 2 1 1 1 1 1 1 1 1 1 0 -0 -0 -0 0 -0 -0 -0 0 0 0 0 1 2 2 3 3 3 4 4 4 5 5
3 3 3 3 2 2 2 2 2 1 1 1 1 1 1 1 1 0 0 0 0 0 0 -0 -0 -0 -0 0 0 0 0 0 0 0 1 1 2 3 3 4 4 5